Flag for Germany Weather past 2 weeks in Kaarst, North Rhine-Westphalia, Germany

Now
55 °F

Passing clouds.


Feels Like: 55 °F
Forecast: 50 / 61 °F
Wind: 3 mph from North

Location: Monchengladbach Airport

Current Time: Oct 25, 2014 at 7:57:53 PM

Latest Report: Oct 25, 2014 at 7:20 PM


Visibility: 5 mi

Pressure: 30.15 "Hg

Humidity: 100%

Dew point: 55 °F

Location of KaarstLocation

Historic Weather in Kaarst — Graph

°F

Kaarst temperature yesterday

Maximum temperature yesterday: 57 °F (at 1:50 PM)
Minimum temperature yesterday: 52 °F (at 7:50 AM)
Average temperature yesterday: 55 °F

Past Weeks' High & Low Weather Summary

 TemperatureHumidityPressure
High75 °F (Oct 19, 1:20 PM)100% (Oct 11, 7:50 AM)30.24 "Hg (Oct 11, 7:50 AM)
Low45 °F (Oct 11, 7:50 AM)56% (Oct 14, 12:50 PM)29.50 "Hg (Oct 21, 3:20 PM)
Average59 °F81%29.92 "Hg
* Reported Oct 10 6:20 PM — Oct 25 6:50 PM, Kaarst, Weather by CustomWeather, © 2014

Note: Actual official high and low records may vary slightly from our data, if they occured in-between our weather recording intervals... More about our weather records

Advertising

Kaarst weather history for previous 24 hours

 ConditionsComfort  
Time TempWeatherWind HumidityBarometerVisibility
6:50 PM
Oct 25
55 °FPassing clouds.3 mph100%30.12 "Hg4 mi
6:20 PM57 °FFog.3 mph94%30.12 "Hg2 mi
5:50 PM57 °FFog.3 mph94%30.12 "Hg2 mi
5:20 PM57 °FFog.5 mph94%30.12 "Hg2 mi
4:50 PM57 °FFog.3 mph94%30.12 "Hg3 mi
4:20 PM57 °FFog.2 mph94%30.12 "Hg3 mi
3:50 PM57 °FLight rain. Passing clouds.2 mph94%30.09 "Hg2 mi
3:20 PM57 °FOvercast.3 mph88%30.09 "Hg5 mi
2:50 PM57 °FPassing clouds.5 mph88%30.09 "Hg5 mi
2:20 PM57 °FPassing clouds.3 mph88%30.09 "Hg5 mi
1:50 PM57 °FPassing clouds.5 mph88%30.09 "Hg5 mi
1:20 PM55 °FPassing clouds.5 mph94%30.09 "Hg4 mi
12:50 PM55 °FFog.5 mph94%30.09 "Hg3 mi
12:20 PM55 °FFog.3 mph94%30.09 "Hg3 mi
11:50 AM55 °FPassing clouds.3 mph94%30.09 "Hg4 mi
11:20 AM55 °FPassing clouds.3 mph94%30.09 "Hg4 mi
10:50 AM55 °FPassing clouds.2 mph94%30.09 "Hg4 mi
10:20 AM54 °FFog.2 mph100%30.07 "Hg2 mi
9:50 AM54 °FFog.2 mph100%30.07 "Hg2 mi
9:20 AM54 °FFog.3 mph100%30.07 "Hg1 mi
8:50 AM54 °FFog.3 mph100%30.07 "Hg1 mi
8:20 AM52 °FFog.3 mph100%30.07 "Hg2 mi
7:50 AM52 °FFog.3 mph100%30.04 "Hg1 mi
8:20 PM
Oct 24
55 °FPassing clouds.6 mph77%30.07 "HgN/A
7:50 PM54 °FPassing clouds.5 mph82%30.07 "HgN/A
7:20 PM55 °FPassing clouds.5 mph77%30.07 "HgN/A
Weather by CustomWeather, © 2014

See weather overviewHow to use our weather pages